Location: Asbacherhof
(48.8543°N, 10.7903°E)
Time: 22:28:50
(UTC+00:00)

CZ-2D R/B - Pass Details

Date: 26 May 2022
Orbit: 791 x 845 km, 98.7° (Epoch: 26 June)

Event Time Altitude Azimuth Distance (km) Brightness Sun altitude
Rises 00:51:19 0° 16° (NNE) 3,384 7.1 -16.8°
Reaches altitude 10° 00:53:43 10° 19° (NNE) 2,438 5.9 -16.6°
Maximum altitude 00:59:06 70° 103° (ESE) 872 2.3 -16.2°
Enters shadow 01:02:29 23° 183° (S) 1,677 3.2 -16.0°
